Terminal Aerodrome Forecast
Issued by NWS Sioux Falls, SD

Home | Current Version | Previous Version | Graphics & Text | Print | Product List | Glossary On
Versions: 1 2 3 4 5 6 7 8 9 10 11 12 13 14 15 16 17 18
000
FTUS43 KFSD 250742 AAB
TAFFSD
TAF AMD
KFSD 250742Z 2508/2606 01011G16KT P6SM OVC008
     FM251600 02012G17KT P6SM VCSH OVC010
     FM251800 02013G19KT 6SM RA OVC015
     FM252000 01015G23KT 4SM RA OVC008
     FM260200 36015G22KT 6SM SHRA OVC008=

USA.gov is the U.S. government's official web portal to all federal, state and local government web resources and services.